Zurück zum Katalog

COSMOS 1780

GLONASS

AktivNavigationMEO
NORAD 16963·PAYLOAD·🇷🇺 Russia

Gestartet Sep 16, 1986 von Baikonur Cosmodrome

Loading…

Nächste Überflüge (nächste 24 Stunden)

TLE

AktuellSource: Space-Track

Epoche: Sep 13, 2026, 22:21 UTC

1 16963U 86071C   26256.93173336 -.00000011  00000-0  00000+0 0  9995
2 16963  64.9457  69.0806 0003021 340.9287 354.9242  2.13107807311216

Verfolge COSMOS 1780 in Echtzeit mit AllMySat

Download on the App Store